Location: Hickory_Viewmont
(35.7830°N, 81.3170°W)
Time: 05:12:22
(UTC-04:00)

Daily predictions for brighter satellites

Satellite Brightness Start Highest point End
(mag) Time Altitude Azimuth Time Altitude Azimuth Time Altitude Azimuth
ATLAS CENTAUR R/B 4.3 00:16:15 72° N 00:16:15 72° N 00:36:07 10° NE
ATLAS 3B R/B 4.5 02:25:37 26° NNW 02:25:37 26° NNW 02:30:23 10° NNE
CZ-3A R/B 4.0 02:45:25 64° ESE 02:45:25 64° ESE 03:20:23 10° NE
Cosmos 2369 Rocket 4.4 02:50:15 10° N 02:52:13 20° N 02:52:13 20° N
USA 234 4.2 03:17:00 10° NE 03:21:30 38° E 03:21:30 38° E
CZ-4C R/B 4.4 03:26:08 17° NNW 03:26:08 17° NNW 03:28:45 10° N
ATLAS 5 CENTAUR R/B 3.7 03:38:58 27° NNE 03:38:58 27° NNE 03:41:21 10° NNE
ARIANE 5 R/B 4.1 03:31:49 10° NNE 03:34:52 32° NE 03:34:52 32° NE
SL-16 R/B 3.2 03:41:16 47° E 03:41:39 48° ENE 03:47:34 10° N
CENTAUR R/B 3.0 03:47:14 54° ENE 03:47:14 54° ENE 03:52:41 10° NE
Cosmos 1709 Rocket 4.5 03:40:19 10° N 03:45:50 58° NE 03:45:50 58° NE
CZ-2D R/B 2.8 03:56:54 10° NNE 04:00:55 49° NE 04:00:55 49° NE
Resurs 1-4 Rocket 2.4 04:20:37 10° N 04:24:59 59° NNW 04:24:59 59° NNW
Okean O Rocket 2.7 04:27:33 10° NNE 04:31:44 39° E 04:32:24 36° ESE
COSMOS 2406 3.0 04:37:42 77° SW 04:38:06 84° WNW 04:43:54 10° NNE
Sich 1 Rocket 3.6 04:42:49 10° N 04:46:53 75° N 04:46:53 75° N
MOZ.5/SAFIR/RUBIN 5/SL-8 4.4 04:44:56 12° SSE 04:49:03 55° ENE 04:53:35 10° N
Cosmos 1408 3.2 04:45:27 10° N 04:48:48 56° NE 04:48:48 56° NE
CZ-4B R/B 3.8 04:44:19 10° NNE 04:49:27 51° E 04:52:34 23° SSE
Cosmos 1943 Rocket 2.2 04:45:09 10° NNW 04:50:12 56° W 04:50:12 56° W
Cosmos 2285 Rocket 4.1 04:44:32 10° NNW 04:51:00 77° ENE 04:57:21 10° SSE
Cosmos 1933 3.6 04:51:39 63° N 04:51:39 63° N 04:55:09 10° N
Cosmos 407 Rocket 4.0 04:51:34 33° SSE 04:53:41 58° ESE 04:58:52 10° NNE
IRS-1C Rocket 4.1 04:50:46 10° NNE 04:56:04 80° ESE 04:58:06 39° S
Okean 1-7 3.8 04:54:53 28° SSE 04:56:48 49° E 05:01:00 10° NNE
SeaSat 1 3.2 04:52:58 10° SE 04:57:44 52° ENE 05:02:31 10° NNW
Atlas Centaur 2 2.6 04:59:34 31° SSE 04:59:34 31° SSE 05:03:17 10° ESE
GPS 2-05 Rocket1 3.4 05:05:26 50° ESE 05:05:26 50° ESE 05:08:08 10° E
USA 234 3.8 05:00:00 10° NNE 05:06:11 46° NW 05:08:50 31° W
CZ-4B R/B 3.0 05:03:24 10° NNE 05:07:07 65° E 05:08:16 41° SSE
Aureole 3 Rocket 3.8 05:05:11 16° S 05:10:52 89° W 05:15:51 10° N
ARIANE 5 R/B 4.1 05:12:00 10° NNW 05:15:13 19° WNW 05:15:13 19° WNW
Cosmos 1656 Rocket 3.4 05:10:23 10° NNW 05:15:48 80° WSW 05:21:12 10° SSE
Cosmos 1825 2.4 05:12:09 10° NNW 05:15:22 49° WNW 05:15:22 49° WNW
Okean 2 Rocket 3.3 05:15:21 10° N 05:19:52 74° E 05:24:23 10° SSE
PSLV R/B 4.0 05:17:01 10° N 05:20:41 47° WNW 05:20:51 47° W
ATLAS 5 CENTAUR R/B 4.0 05:20:32 12° NW 05:21:46 13° NW 05:24:07 10° N
Abrixas rocket 4.3 05:19:35 11° NNW 05:22:17 27° NNE 05:25:12 10° E
Nadezhda 1 Rocket 4.1 05:21:21 25° SSW 05:25:02 57° W 05:31:17 10° N
SL-16 R/B 3.7 05:26:22 22° W 05:26:22 22° W 05:30:14 10° NW
ADEOS Rocket 3.9 05:18:48 10° NNE 05:26:35 68° E 05:34:06 10° S
PSLV R/B 3.3 05:28:59 36° WNW 05:30:16 79° NNE 05:33:40 10° ESE
Cosmos 1782 Rocket 3.5 05:28:58 10° NNW 05:33:14 59° W 05:37:29 10° S
PAYLOAD B 4.3 05:30:01 10° N 05:35:25 56° WNW 05:39:16 19° SW
CENTAUR R/B 3.9 05:34:26 18° W 05:37:22 24° NW 05:42:50 10° N
AVUM R/B 4.1 05:37:18 31° WNW 05:37:28 31° WNW 05:40:29 10° N
CZ-2D R/B 3.8 05:38:58 10° NNW 05:41:35 14° WNW 05:42:14 14° WNW
COSMOS 2487 3.4 05:44:02 28° W 05:44:53 32° WNW 05:48:10 10° N
Cosmos 2181 Rocket 4.1 05:39:10 10° S 05:45:37 90° E 05:52:02 10° N
CZ-2C R/B 4.1 05:42:01 10° SSW 05:46:05 36° W 05:50:11 10° NNW
BREEZE-M DEB (TANK) 4.0 05:45:01 23° WNW 05:46:08 32° NNW 05:50:23 10° NE
Thor Agena Rocket 3.6 05:52:45 10° S 05:57:45 53° W 06:02:51 10° NNW
Cosmos 1023 Rocket 4.4 05:54:39 10° SSW 05:59:44 89° WNW 06:04:51 10° NNE
Cosmos 1954 Rocket 4.1 05:55:16 10° SSW 06:00:21 58° WNW 06:05:29 10° N
Cosmos 2154 Rocket 4.2 05:56:03 10° NNW 06:02:08 50° W 06:08:12 10° SSW
USA 129 3.4 06:04:10 12° NNW 06:04:10 12° NNW 06:04:22 10° NNW
Cosmos 1356 4.1 06:03:07 10° N 06:06:38 61° E 06:10:07 10° SSE
Okean O Rocket 3.3 06:04:54 10° NNW 06:07:46 17° WNW 06:09:51 13° W
USA 229 DEB 4.3 06:02:09 10° SSW 06:08:53 59° ESE 06:15:42 10° NE
USA 229 4.3 06:02:15 10° SSW 06:08:59 59° ESE 06:15:48 10° NE
Cosmos 1400 Rocket 4.1 06:06:41 10° N 06:10:25 44° ENE 06:14:07 10° SSE
Meteor PRIRODA 3.8 06:07:21 10° N 06:11:04 57° WNW 06:14:46 10° SSW
Cosmos 2278 3.9 06:05:37 10° NNW 06:11:22 78° ENE 06:17:04 10° SSE
Meteor 2-10 Rocket 3.9 06:07:15 10° SSW 06:12:55 56° W 06:18:31 10° N
Timation 2 Rocket 3.9 06:06:42 10° SSW 06:12:58 86° WNW 06:19:03 10° NNE
CZ-4B R/B 4.2 06:09:27 10° NNE 06:13:57 83° E 06:18:19 10° S
ADEOS II 2.2 06:09:25 10° N 06:14:33 56° WNW 06:19:40 10° SSW
Okean-O 3.2 06:14:44 10° N 06:18:52 39° WNW 06:22:59 10° SW
USA 116 4.4 06:14:31 10° S 06:19:14 55° W 06:24:24 10° NNW
Feng Yun 1-1 Rocket 4.4 06:15:38 10° N 06:20:52 52° WNW 06:26:08 10° SSW
Cosmos 1850 Rocket 4.0 06:20:19 10° SSW 06:25:34 72° WNW 06:30:54 10° NNE
SL-8 Rocket 4.0 06:20:05 10° N 06:26:17 72° W 06:32:29 10° S
Cosmos 2369 3.8 06:20:41 10° NNW 06:26:27 87° WSW 06:32:10 10° SSE
Cosmos 2341 Rocket 4.5 06:22:17 10° NNW 06:28:04 39° W 06:33:53 10° SSW
Cosmos 489 Rocket 4.5 06:24:54 10° SSW 06:31:06 74° WNW 06:37:19 10° NNE
